Weather in Tatarskoye Maklakovo

Russia / Nizhny Novgorod Oblast'     55°48′32″N   45°34′13″E
temp.,
°C
wind,
m/s
gust,
m/s
humid.,
%
clouds,
%
prec.,
mm/h
press.,
hPa
HPBL,
m
5 august, thu
thu500:00+17nw365317 0.0 1015124
03:00+16nnw365899 0.0 1016146
06:00+15nw2568100 0.0 1017141
09:00+20nw474352 0.0 1017796
12:00+23nnw57385 0.0 10171905
15:00+24nnw463319 0.0 10172485
18:00+22nnw364413 0.0 1017243
21:00+16n2256100 0.0 101711
6 august, fri
fri600:00+15ese225826 0.0 101711
03:00+14ese22605 0.0 101811
06:00+16se235795 0.0 101899
09:00+21se454476 0.0 1018548
12:00+24sse5537100 0.0 10171387
15:00+25ssw5643100 0.0 10161681
18:00+21sw2361100 0.0 101653
21:00+17ne3484100 0.6 101671
7 august, sat
sat700:00+16ene4988100 0.1 1016229
03:00+16e4981100 0.1 1016192
06:00+17ese4862100 0.0 1016187
09:00+18sse61055100 0.0 1016244
12:00+20s495530 0.0 1016351
15:00+23ssw2352100 0.0 101569
18:00+24se24539 0.0 1015189
21:00+19ese466569 0.0 101681
8 august, sun
sun800:00+17se487193 0.0 1016132
03:00+17se3868100 0.0 1017145
06:00+18se4861100 0.0 1017158
09:00+22se3655100 0.0 1017230
12:00+28sse4536100 0.0 1017855
15:00+30s6732100 0.0 10161339
18:00+27sse3548100 0.0 1016142
21:00+22sse2255100 0.0 101713
9 august, mon
mon900:00+21s2259100 0.1 101721
03:00+20n1166100 0.1 101715
06:00+21nne2359100 0.0 101742
09:00+24s355142 0.0 1017299
12:00+30sw573698 0.0 10171696
15:00+31ssw683366 0.0 10162752
18:00+27ssw474381 0.0 1016233
21:00+24n35566 0.1 101694